Location: Kelowna
(49.8880°N, 119.4960°W)
Time: 17:03:26
(UTC-07:00)

AO-27 - Pass Details

Date: 15 August 2024
Orbit: 783 x 796 km, 98.8° (Epoch: 14 September)

Event Time Altitude Azimuth Distance (km) Brightness Sun altitude
Exits shadow 21:56:02 - 184° (S) 2,632 10.0 -14.5°
Reaches altitude 10° 21:56:46 10° 187° (S) 2,358 9.8 -14.6°
Maximum altitude 22:01:46 47° 261° (W) 1,046 8.5 -15.2°
Drops below altitude 10° 22:06:51 10° 335° (NNW) 2,378 11.3 -15.8°
Sets 22:09:17 0° 341° (NNW) 3,313 12.1 -16.1°
